{"data":{"norad_id":39086,"intl_designator":"2013-009A","name":"SARAL","alt_names":[],"object_type":"PAYLOAD","status":"ACTIVE","operator":null,"country":"IND","launch_date":"2013-02-25","launch_site_code":"SRILR","launch_vehicle":null,"mission":null,"orbit_class":"UNKNOWN","rcs_meters":1.6825,"size_class":null,"mass_kg":null,"dimensions":null,"purposes":["earth_obs"],"wikipedia_slug":null,"has_3d_model":false,"image_url":null,"decayed_at":null,"tle_current":{"epoch":"2026-05-25T03:16:25.182048Z","epoch_age_seconds":66435,"freshness":"FRESH","line1":"1 39086U 13009A   26145.13640257  .00000078  00000+0  44597-4 0  9992","line2":"2 39086  98.5560 331.9958 0002051  28.7080 331.4217 14.32849470692305","mean_motion":14.3284947,"eccentricity":0.0002051,"inclination_deg":98.556,"raan_deg":331.9958,"arg_perigee_deg":28.708,"mean_anomaly_deg":331.4217,"bstar":4.4597e-5,"rev_number":69230,"period_min":100.4990426524,"perigee_km":780.75339817852,"apogee_km":783.69057743532,"semimajor_km":7160.3589878069,"source":"CELESTRAK","updated_at":"2026-05-25T13:38:12.781811Z"}}}